N4CRH-13 Weather Reports


time (UTC)temp
C
wind
direction
speed
KPH
gust
KPH
rain 1hr
cm
rain 24hr
cm
rain mn
cm
humidity
%
barometer
mb
20260505111005 3 287 19.3 20.9 0.00 0.13 0.13 98 1289.8
20260505110501 3 302 19.3 22.5 0.00 0.13 0.13 97 1289.8
20260505101933 5 295 1.6 4.8 0.00 0.13 0.13 96 1289.2
20260505101426 5 251 6.4 9.7 0.00 0.13 0.13 96 1289.0
20260505100922 5 293 6.4 11.3 0.00 0.13 0.13 96 1289.1
20260505100419 5 255 6.4 9.7 0.00 0.13 0.13 96 1289.0
20260505095915 5 274 11.3 12.9 0.00 0.13 0.13 96 1288.7
20260505095412 5 236 11.3 14.5 0.00 0.13 0.13 96 1288.7
20260505094908 5 256 11.3 16.1 0.00 0.13 0.13 96 1289.1
20260505094406 5 313 12.9 16.1 0.00 0.13 0.13 96 1289.0
20260505093901 5 297 0.0 1.6 0.00 0.13 0.13 95 1288.6
20260505093358 5 246 0.0 0.0 0.00 0.13 0.13 94 1288.6
20260505092856 5 259 0.0 1.6 0.00 0.13 0.13 94 1288.5
20260505092354 5 302 0.0 1.6 0.00 0.13 0.13 94 1288.5
20260505091850 5 342 0.0 1.6 0.00 0.13 0.13 93 1288.4
20260505091349 5 309 0.0 0.0 0.00 0.13 0.13 92 1288.6
20260505090846 5 300 0.0 0.0 0.00 0.13 0.13 91 1288.6
20260505090344 6 308 0.0 8.0 0.00 0.13 0.13 89 1288.3
20260505085841 6 82 6.4 8.0 0.00 0.13 0.13 89 1288.4
20260505085339 6 152 3.2 4.8 0.00 0.13 0.13 90 1288.5
20260505084837 6 306 0.0 3.2 0.00 0.13 0.13 89 1288.5
20260505084335 5 287 1.6 3.2 0.00 0.13 0.13 90 1288.5
20260505083832 5 223 4.8 8.0 0.00 0.13 0.13 92 1288.5
20260505083329 5 80 1.6 3.2 0.00 0.13 0.13 95 1288.7
20260505082826 5 295 3.2 3.2 0.00 0.13 0.13 97 1288.7
20260505082322 5 247 1.6 3.2 0.00 0.13 0.13 97 1289.1
20260505081819 5 122 1.6 3.2 0.00 0.13 0.13 97 1289.0
20260505081315 5 316 0.0 1.6 0.00 0.13 0.13 98 1289.1
20260505080812 5 262 0.0 1.6 0.00 0.13 0.13 98 1289.5
20260505080308 5 257 0.0 0.0 0.00 0.13 0.13 98 1289.6
20260505075804 5 285 0.0 0.0 0.00 0.13 0.13 98 1289.6
20260505075303 5 252 1.6 3.2 0.00 0.13 0.13 98 1289.8
20260505074758 5 294 0.0 0.0 0.00 0.13 0.13 98 1290.1
20260505074255 5 275 0.0 1.6 0.00 0.13 0.13 98 1290.3
20260505073753 5 168 1.6 3.2 0.00 0.13 0.13 98 1290.1
20260505073251 5 190 1.6 3.2 0.18 0.13 0.13 98 1290.2
20260505072747 5 282 0.0 0.0 0.18 0.13 0.13 98 1290.7
20260505072243 5 285 0.0 1.6 0.00 0.10 0.10 98 1290.6
20260505071739 5 286 0.0 0.0 0.13 0.10 0.10 98 1290.4
20260505071236 5 267 0.0 1.6 0.13 0.10 0.10 98 1290.4
20260505070734 5 275 0.0 0.0 0.00 0.08 0.08 98 1290.7
20260505070230 5 275 0.0 0.0 0.18 0.08 0.08 98 1290.4
20260505065725 5 274 0.0 1.6 0.18 0.08 0.08 97 1290.7
20260505065223 5 349 0.0 0.0 0.00 0.05 0.05 97 1290.8
20260505064719 5 306 0.0 0.0 0.00 0.05 0.05 97 1290.8
20260505064217 5 309 0.0 1.6 0.13 0.05 0.05 97 1290.8
20260505063715 5 295 0.0 0.0 0.13 0.05 0.05 97 1291.1
20260505063210 5 293 0.0 0.0 0.00 0.03 0.03 97 1290.4
20260505062708 5 296 0.0 0.0 0.00 0.03 0.03 97 1290.6
20260505062206 5 287 0.0 0.0 0.18 0.03 0.03 97 1290.6
20260505061702 5 286 0.0 1.6 0.18 0.03 0.03 97 1290.7
20260505061200 5 300 0.0 1.6 0.00 0.00 0.00 97 1290.7
20260505060657 5 301 0.0 0.0 0.00 0.00 0.00 97 1290.7
20260505060153 5 299 0.0 0.0 0.00 0.00 0.00 97 1290.4
20260505055649 5 298 0.0 0.0 0.00 0.38 0.38 97 1290.6
20260505055145 5 298 0.0 0.0 0.00 0.38 0.38 97 1290.4
20260505054643 6 298 0.0 0.0 0.00 0.38 0.38 97 1290.8
20260505054141 5 279 1.6 3.2 0.00 0.38 0.38 97 1290.7
20260505053638 5 261 3.2 4.8 0.00 0.38 0.38 97 1290.8
20260505053134 6 300 3.2 8.0 0.00 0.38 0.38 96 1290.8
20260505052632 6 296 8.0 11.3 0.00 0.38 0.38 96 1290.4
20260505052129 6 292 6.4 9.7 0.00 0.38 0.38 96 1290.9
20260505051626 5 284 3.2 9.7 0.00 0.38 0.38 96 1290.6
20260505051124 5 272 4.8 4.8 0.00 0.38 0.38 96 1290.8
20260505050621 5 277 4.8 8.0 0.00 0.38 0.38 96 1290.7
20260505050120 5 261 3.2 8.0 0.00 0.38 0.38 96 1290.8
20260505041549 5 293 1.6 1.6 0.00 0.38 0.38 95 1290.7
20260505041047 5 309 0.0 1.6 0.00 0.38 0.38 94 1290.4
20260505040544 5 298 3.2 3.2 0.00 0.38 0.38 94 1290.8
20260505040041 5 292 1.6 3.2 0.00 0.38 0.38 94 1290.7
20260505035537 5 289 1.6 1.6 0.00 0.38 0.38 94 1290.2
20260505035034 5 337 0.0 1.6 0.00 0.38 0.38 93 1290.3
20260505034530 6 310 0.0 1.6 0.00 0.38 0.38 93 1290.1
20260505034027 6 288 0.0 1.6 0.30 0.38 0.38 93 1290.2
20260505033524 6 244 1.6 1.6 0.30 0.36 0.36 93 1290.0
20260505033022 6 121 1.6 3.2 0.30 0.33 0.33 91 1290.4
20260505032520 6 338 0.0 1.6 0.48 0.30 0.30 89 1290.4
20260505032016 6 314 1.6 1.6 0.48 0.28 0.28 89 1290.7
20260505031513 6 344 0.0 3.2 0.18 0.23 0.23 89 1290.6
20260505031010 6 342 1.6 1.6 0.13 0.20 0.20 90 1290.6
20260505030506 6 327 1.6 1.6 0.18 0.18 0.18 89 1290.1
20260505030001 7 293 0.0 1.6 0.18 0.18 0.18 87 1290.0
20260505025458 7 267 0.0 1.6 0.00 0.15 0.15 85 1290.1
20260505024958 7 344 1.6 3.2 0.13 0.15 0.15 83 1290.2
20260505024454 6 332 1.6 4.8 0.00 0.13 0.13 87 1290.2
20260505023951 7 296 0.0 1.6 0.18 0.13 0.13 87 1290.1
20260505023448 6 316 1.6 3.2 0.18 0.13 0.13 87 1289.7
20260505022946 7 200 3.2 3.2 0.00 0.10 0.10 88 1289.8
20260505022443 7 320 0.0 1.6 0.00 0.10 0.10 86 1289.8
20260505021940 6 308 0.0 1.6 0.00 0.10 0.10 91 1289.8
20260505021436 6 303 0.0 0.0 0.13 0.10 0.10 92 1290.3
20260505020932 6 282 0.0 1.6 0.13 0.10 0.10 92 1289.7
20260505020428 6 288 1.6 1.6 0.00 0.08 0.08 92 1290.1
20260505015925 6 276 3.2 3.2 0.00 0.08 0.08 91 1290.0
20260505015422 6 296 0.0 1.6 0.00 0.08 0.08 91 1289.8
20260505014919 7 239 0.0 1.6 0.00 0.08 0.08 91 1289.8
20260505014416 7 260 0.0 0.0 0.00 0.08 0.08 89 1289.4
20260505013913 7 299 0.0 0.0 0.00 0.08 0.08 87 1289.4
20260505013410 7 292 0.0 0.0 0.00 0.08 0.08 86 1289.2
20260505012908 7 291 0.0 3.2 0.18 0.08 0.08 81 1289.1
20260505012406 7 278 4.8 9.7 0.18 0.08 0.08 79 1289.8
20260505011901 7 260 4.8 17.7 0.13 0.05 0.05 79 1289.8
20260505011358 8 268 6.4 9.7 0.30 0.05 0.05 71 1289.8
20260505010855 8 258 8.0 12.9 0.18 0.03 0.03 71 1289.6
20260505010350 9 257 14.5 22.5 0.00 0.00 0.00 68 1289.7
20260505005847 10 242 16.1 25.7 0.00 0.00 0.00 61 1289.5
20260505005344 10 273 11.3 22.5 0.00 0.00 0.00 56 1289.2
20260505004842 11 298 14.5 22.5 0.00 0.00 0.00 51 1289.2
20260505004337 11 275 11.3 12.9 0.00 0.00 0.00 51 1289.1
20260505003835 11 263 9.7 16.1 0.00 0.00 0.00 50 1289.1
20260505003332 11 290 8.0 11.3 0.00 0.00 0.00 49 1289.0
20260505002828 11 291 4.8 4.8 0.00 0.00 0.00 50 1288.9
20260505002325 11 187 1.6 8.0 0.00 0.00 0.00 48 1289.1
20260505001823 11 340 4.8 9.7 0.00 0.00 0.00 48 1289.2
20260505001320 11 9 4.8 9.7 0.00 0.00 0.00 47 1289.1
20260505000817 12 301 3.2 8.0 0.00 0.00 0.00 46 1288.7
20260505000315 12 219 4.8 8.0 0.00 0.00 0.00 46 1288.7
20260504235811 12 327 6.4 14.5 0.00 0.00 0.00 45 1288.9
20260504235308 12 299 14.5 25.7 0.00 0.00 0.00 45 1288.9
20260504234805 12 299 17.7 25.7 0.00 0.00 0.00 43 1288.3
20260504234303 13 330 16.1 20.9 0.00 0.00 0.00 41 1288.1
20260504233759 13 291 14.5 24.1 0.00 0.00 0.00 41 1288.3
20260504233255 13 311 20.9 25.7 0.00 0.00 0.00 40 1288.1
20260504232752 13 303 14.5 25.7 0.00 0.00 0.00 40 1288.1
20260504232249 13 303 14.5 24.1 0.00 0.00 0.00 39 1288.0
20260504231746 14 287 16.1 17.7 0.00 0.00 0.00 38 1287.9
20260504231242 15 299 8.0 14.5 0.00 0.00 0.00 34 1287.8
20260504230738 15 319 9.7 11.3 0.00 0.00 0.00 32 1287.6
20260504230237 15 294 11.3 12.9 0.00 0.00 0.00 32 1287.2
20260504225735 15 264 6.4 11.3 0.00 0.00 0.00 34 1287.3
20260504225231 15 306 9.7 12.9 0.00 0.00 0.00 35 1287.2
20260504224728 16 259 4.8 4.8 0.00 0.00 0.00 33 1287.0
20260504224226 16 292 1.6 8.0 0.00 0.00 0.00 29 1287.0
20260504223722 16 261 4.8 8.0 0.00 0.00 0.00 31 1287.0
20260504223217 16 296 9.7 11.3 0.00 0.00 0.00 31 1287.0
20260504222715 16 273 3.2 4.8 0.00 0.00 0.00 34 1287.0
20260504222211 16 258 12.9 12.9 0.00 0.00 0.00 30 1287.3
20260504221709 16 296 11.3 16.1 0.00 0.00 0.00 30 1287.3
20260504221206 16 249 11.3 14.5 0.00 0.00 0.00 31 1286.9
20260504220702 16 296 14.5 17.7 0.00 0.00 0.00 33 1287.2
20260504220200 16 258 12.9 16.1 0.00 0.00 0.00 33 1286.9
20260504215656 16 299 9.7 17.7 0.00 0.00 0.00 34 1287.2
20260504215154 16 277 14.5 17.7 0.00 0.00 0.00 33 1287.3
20260504214649 17 298 20.9 24.1 0.00 0.00 0.00 33 1287.2
20260504214146 16 281 19.3 29.0 0.00 0.00 0.00 34 1287.2
20260504213642 16 278 17.7 25.7 0.00 0.00 0.00 34 1287.2
20260504213139 16 270 20.9 25.7 0.00 0.00 0.00 33 1287.3
20260504212635 16 244 20.9 25.7 0.00 0.00 0.00 34 1287.2
20260504212132 16 285 24.1 32.2 0.00 0.00 0.00 33 1287.3
20260504211630 17 301 24.1 32.2 0.00 0.00 0.00 33 1287.3
20260504211126 18 291 17.7 29.0 0.00 0.00 0.00 28 1287.2
20260504210624 18 306 14.5 22.5 0.00 0.00 0.00 28 1287.2
20260504210120 17 293 16.1 22.5 0.00 0.00 0.00 28 1287.3
20260504205618 16 291 14.5 20.9 0.00 0.00 0.00 30 1287.5
20260504205115 16 303 12.9 24.1 0.00 0.00 0.00 30 1287.4
20260504204614 16 307 8.0 22.5 0.00 0.00 0.00 33 1287.5
20260504204112 16 299 20.9 27.4 0.00 0.00 0.00 31 1287.4
20260504203610 16 302 16.1 20.9 0.00 0.00 0.00 30 1287.8
20260504203103 16 309 11.3 17.7 0.00 0.00 0.00 35 1287.6
20260504202557 16 298 14.5 24.1 0.00 0.00 0.00 32 1287.6
20260504202055 16 295 16.1 20.9 0.00 0.00 0.00 34 1287.5
20260504201551 16 322 22.5 27.4 0.00 0.00 0.00 33 1287.6
20260504201049 16 275 19.3 22.5 0.00 0.00 0.00 32 1287.8
20260504200545 16 257 17.7 29.0 0.00 0.00 0.00 33 1287.8
20260504200042 16 289 22.5 25.7 0.00 0.00 0.00 32 1287.8
20260504195538 16 287 14.5 25.7 0.00 0.00 0.00 31 1287.8
20260504195035 16 301 17.7 29.0 0.00 0.00 0.00 31 1287.8
20260504194532 17 291 22.5 27.4 0.00 0.00 0.00 31 1287.6
20260504194027 16 285 14.5 20.9 0.00 0.00 0.00 31 1287.8
20260504193524 16 313 14.5 22.5 0.00 0.00 0.00 32 1287.5
20260504193023 16 284 30.6 37.0 0.00 0.00 0.00 30 1287.9
20260504192521 17 263 8.0 12.9 0.00 0.00 0.00 22 1287.3
20260504192019 18 259 9.7 16.1 0.00 0.00 0.00 21 1287.2
20260504191516 18 298 11.3 17.7 0.00 0.00 0.00 24 1287.3
20260504191012 18 299 11.3 17.7 0.00 0.00 0.00 22 1287.5
20260504190508 18 303 9.7 16.1 0.00 0.00 0.00 30 1287.4
20260504190004 17 302 11.3 12.9 0.00 0.00 0.00 27 1287.3
20260504185502 17 301 11.3 22.5 0.00 0.00 0.00 27 1287.4
20260504184958 17 274 6.4 8.0 0.00 0.00 0.00 26 1287.5
20260504184453 17 250 8.0 11.3 0.00 0.00 0.00 28 1287.4
20260504183949 18 298 9.7 11.3 0.00 0.00 0.00 25 1287.6
20260504183447 18 301 12.9 12.9 0.00 0.00 0.00 23 1287.8
20260504182944 18 267 3.2 12.9 0.00 0.00 0.00 21 1287.6
20260504182441 18 295 3.2 11.3 0.00 0.00 0.00 22 1287.4
20260504181939 18 297 14.5 24.1 0.00 0.00 0.00 24 1287.9
20260504181435 18 296 4.8 11.3 0.00 0.00 0.00 23 1288.0
20260504180934 18 333 6.4 9.7 0.00 0.00 0.00 23 1287.9
20260504180433 18 277 3.2 8.0 0.00 0.00 0.00 23 1288.0
20260504175930 17 111 4.8 12.9 0.00 0.00 0.00 25 1288.0
20260504175427 17 291 11.3 24.1 0.00 0.00 0.00 24 1288.1
20260504174925 18 311 9.7 11.3 0.00 0.00 0.00 25 1288.1
20260504174422 17 282 6.4 12.9 0.00 0.00 0.00 25 1288.3
20260504173919 18 258 9.7 11.3 0.00 0.00 0.00 29 1288.6
20260504173416 17 298 4.8 27.4 0.00 0.00 0.00 25 1288.7
20260504172914 17 306 14.5 22.5 0.00 0.00 0.00 27 1289.0
20260504172409 17 272 11.3 14.5 0.00 0.00 0.00 28 1288.9
20260504171905 17 296 6.4 16.1 0.00 0.00 0.00 27 1289.1
20260504171403 17 298 9.7 16.1 0.00 0.00 0.00 28 1289.0
20260504170900 17 124 3.2 14.5 0.00 0.00 0.00 26 1288.9
20260504170356 16 291 11.3 14.5 0.00 0.00 0.00 28 1289.1
20260504160315 16 266 22.5 35.4 0.00 0.00 0.00 31 1289.5
20260504150740 15 303 12.9 25.7 0.00 0.00 0.00 29 1289.6
20260504150237 15 244 9.7 12.9 0.00 0.00 0.00 30 1289.8
20260504141206 14 287 3.2 14.5 0.00 0.00 0.00 32 1289.6
20260504140703 13 267 3.2 9.7 0.00 0.00 0.00 30 1289.6
20260504140158 13 289 4.8 11.3 0.00 0.00 0.00 32 1289.7
20260504130627 13 297 4.8 9.7 0.00 0.00 0.00 32 1289.5
20260504130124 13 164 4.8 20.9 0.00 0.00 0.00 31 1289.5